Location: Horowhenua
(40.7500°S, 175.3333°E)
Time: 04:58:17
(UTC+00:00)

IDEFIX/ARIANE 42P - Pass Details

Date: 28 January 2023
Orbit: 783 x 802 km, 98.5° (Epoch: 01 April)

Event Time Altitude Azimuth Distance (km) Brightness Sun altitude
Exits shadow 14:22:03 28° 251° (WSW) 1,456 3.8 -25.7°
Drops below altitude 10° 14:25:30 10° 214° (SW) 2,381 5.3 -25.4°
Sets 14:28:06 0° 203° (SSW) 3,316 6.3 -25.2°
